{"data":{"norad_id":64100,"intl_designator":"2025-110E","name":"STARLINK-34082","alt_names":[],"object_type":"PAYLOAD","status":"ACTIVE","operator":null,"country":"US","launch_date":"2025-05-23","launch_site_code":"AFWTR","launch_vehicle":null,"mission":null,"orbit_class":"UNKNOWN","rcs_meters":null,"size_class":null,"mass_kg":null,"dimensions":null,"purposes":["comms"],"wikipedia_slug":null,"has_3d_model":false,"image_url":null,"decayed_at":null,"tle_current":{"epoch":"2026-05-25T00:12:01.967040Z","epoch_age_seconds":70981,"freshness":"FRESH","line1":"1 64100U 25110E   26145.00835610  .00007095  00000+0  25140-3 0  9996","line2":"2 64100  53.1611  32.5257 0001007 100.5870 259.5245 15.30203907 57568","mean_motion":15.30203907,"eccentricity":0.0001007,"inclination_deg":53.1611,"raan_deg":32.5257,"arg_perigee_deg":100.587,"mean_anomaly_deg":259.5245,"bstar":0.0002514,"rev_number":5756,"period_min":94.105105431547,"perigee_km":474.51327246772,"apogee_km":475.89353522505,"semimajor_km":6853.3404038464,"source":"CELESTRAK","updated_at":"2026-05-25T13:38:20.264077Z"}}}